H1 CPF 2 NER 2022 11 20 9 324 01 glonass137 H2 1705501 9137 42939 2022 11 20 0 0 0 2022 11 23 23 45 0 900 1 1 0 0 0 1 H9 10 0 59903 0.00000 0 -659446.126 11145252.071 -22924085.413 10 0 59903 900.00000 0 -3457954.662 11374598.318 -22558501.026 10 0 59903 1800.00000 0 -6161457.388 11793089.767 -21754391.143 10 0 59903 2700.00000 0 -8705629.598 12377695.993 -20527442.637 10 0 59903 3600.00000 0 -11032297.950 13094821.234 -18901558.173 10 0 59903 4500.00000 0 -13091614.195 13901766.290 -16908387.727 10 0 59903 5400.00000 0 -14843883.468 14748591.172 -14586709.795 10 0 59903 6300.00000 0 -16260972.102 15580299.707 -11981674.327 10 0 59903 7200.00000 0 -17327237.379 16339253.795 -9143922.223 10 0 59903 8100.00000 0 -18039941.794 16967715.227 -6128598.569 10 0 59903 9000.00000 0 -18409135.966 17410407.654 -2994278.939 10 0 59903 9900.00000 0 -18457016.541 17616990.350 198170.053 10 0 59903 10800.00000 0 -18216787.552 17544339.231 3386773.593 10 0 59903 11700.00000 0 -17731074.423 17158538.676 6509651.667 10 0 59903 12600.00000 0 -17049958.486 16436499.979 9506218.576 10 0 59903 13500.00000 0 -16228715.670 15367138.006 12318355.655 10 0 59903 14400.00000 0 -15325355.182 13952056.195 14891534.539 10 0 59903 15300.00000 0 -14398062.106 12205710.710 17175869.421 10 0 59903 16200.00000 0 -13502651.550 10155046.241 19127078.425 10 0 59903 17100.00000 0 -12690141.195 7838617.866 20707336.111 10 0 59903 18000.00000 0 -12004543.840 5305234.731 21886001.269 10 0 59903 18900.00000 0 -11480972.186 2612180.912 22640206.687 10 0 59903 19800.00000 0 -11144134.904 -176913.884 22955300.071 10 0 59903 20700.00000 0 -11007286.733 -2994466.554 22825128.037 10 0 59903 21600.00000 0 -11071676.446 -5771497.981 22252157.852 10 0 59903 22500.00000 0 -11326515.868 -8440250.822 21247434.446 10 0 59903 23400.00000 0 -11749471.528 -10936760.278 19830373.131 10 0 59903 24300.00000 0 -12307658.749 -13203272.273 18028391.330 10 0 59903 25200.00000 0 -12959097.039 -15190409.463 15876385.591 10 0 59903 26100.00000 0 -13654566.175 -16858995.562 13416063.059 10 0 59903 27000.00000 0 -14339785.414 -18181462.398 10695139.440 10 0 59903 27900.00000 0 -14957824.380 -19142781.363 7766418.177 10 0 59903 28800.00000 0 -15451644.049 -19740880.369 4686768.209 10 0 59903 29700.00000 0 -15766660.327 -19986529.033 1516019.873 10 0 59903 30600.00000 0 -15853221.357 -19902697.067 -1684199.627 10 0 59903 31500.00000 0 -15668892.940 -19523413.108 -4851668.106 10 0 59903 32400.00000 0 -15180454.449 -18892172.642 -7924783.666 10 0 59903 33300.00000 0 -14365519.521 -18059962.554 -10843769.036 10 0 59903 34200.00000 0 -13213711.767 -17082986.388 -13551840.652 10 0 59903 35100.00000 0 -11727344.491 -16020187.011 -15996318.997 10 0 59903 36000.00000 0 -9921574.402 -14930671.920 -18129658.047 10 0 59903 36900.00000 0 -7824021.707 -13871150.475 -19910373.293 10 0 59903 37800.00000 0 -5473871.460 -12893491.624 -21303850.147 10 0 59903 38700.00000 0 -2920492.826 -12042505.328 -22283017.058 10 0 59903 39600.00000 0 -221633.361 -11354041.214 -22828870.408 10 0 59903 40500.00000 0 2558737.051 -10853484.341 -22930841.370 10 0 59903 41400.00000 0 5352843.317 -10554711.027 -22586997.965 10 0 59903 42300.00000 0 8091683.071 -10459548.153 -21804078.744 10 0 59903 43200.00000 0 10707658.790 -10557758.074 -20597357.782 10 0 59903 44100.00000 0 13137155.133 -10827549.101 -18990343.797 10 0 59903 45000.00000 0 15322954.845 -11236589.365 -17014319.393 10 0 59903 45900.00000 0 17216393.427 -11743480.720 -14707729.465 10 0 59903 46800.00000 0 18779163.651 -12299629.949 -12115430.656 10 0 59903 47700.00000 0 19984695.567 -12851437.804 -9287816.560 10 0 59903 48600.00000 0 20819055.507 -13342713.020 -6279835.761 10 0 59903 49500.00000 0 21281327.694 -13717208.948 -3149921.925 10 0 59903 50400.00000 0 21383463.729 -13921175.311 41142.945 10 0 59903 51300.00000 0 21149607.592 -13905816.951 3231409.777 10 0 59903 52200.00000 0 20614925.761 -13629555.440 6358965.027 10 0 59903 53100.00000 0 19823992.710 -13059997.809 9363130.951 10 0 59903 54000.00000 0 18828800.631 -12175529.052 12185640.232 10 0 59903 54900.00000 0 17686477.708 -10966460.921 14771762.250 10 0 59903 55800.00000 0 16456811.275 -9435688.252 17071359.370 10 0 59903 56700.00000 0 15199680.002 -7598824.602 19039853.273 10 0 59903 57600.00000 0 13972502.742 -5483810.684 20639083.243 10 0 59903 58500.00000 0 12827810.647 -3130010.985 21838040.462 10 0 59903 59400.00000 0 11811043.795 -586835.076 22613464.831 10 0 59903 60300.00000 0 10958663.925 2088060.403 22950293.431 10 0 59903 61200.00000 0 10296661.755 4830915.652 22841952.333 10 0 59903 62100.00000 0 9839520.800 7574270.011 22290486.366 10 0 59903 63000.00000 0 9589680.719 10249524.413 21306524.192 10 0 59903 63900.00000 0 9537522.508 12789558.870 19909078.977 10 0 59903 64800.00000 0 9661876.191 15131297.539 18125187.854 10 0 59903 65700.00000 0 9931029.858 17218115.714 15989396.268 10 0 59903 66600.00000 0 10304197.968 19001989.127 13543096.253 10 0 59903 67500.00000 0 10733387.401 20445296.551 10833730.546 10 0 59903 68400.00000 0 11165582.857 21522200.655 7913877.142 10 0 59903 69300.00000 0 11545159.452 22219549.282 4840231.517 10 0 59903 70200.00000 0 11816420.395 22537259.503 1672506.008 10 0 59903 71100.00000 0 11926151.970 22488168.153 -1527732.307 10 0 59903 72000.00000 0 11826086.954 22097355.223 -4698262.194 10 0 59903 72900.00000 0 11475171.267 21400968.803 -7777423.432 10 0 59903 73800.00000 0 10841536.691 20444601.380 -10705322.204 10 0 59903 74700.00000 0 9904094.969 19281286.365 -13425002.367 10 0 59903 75600.00000 0 8653684.450 17969199.822 -15883559.160 10 0 59903 76500.00000 0 7093719.517 16569164.862 -18033173.033 10 0 59903 77400.00000 0 5240314.132 15142064.419 -19832043.027 10 0 59903 78300.00000 0 3121873.071 13746271.784 -21245201.375 10 0 59903 79200.00000 0 778166.864 12435207.240 -22245193.531 10 0 59903 80100.00000 0 -1741071.709 11255123.633 -22812610.554 10 0 59903 81000.00000 0 -4377971.730 10243213.685 -22936463.874 10 0 59903 81900.00000 0 -7068693.483 9426118.092 -22614395.535 10 0 59903 82800.00000 0 -9745853.108 8818896.424 -21852720.183 10 0 59903 83700.00000 0 -12341102.192 8424503.180 -20666298.335 10 0 59903 84600.00000 0 -14787755.424 8233790.023 -19078243.577 10 0 59903 85500.00000 0 -17023357.400 8226033.147 -17119469.559 10 0 59904 0.00000 0 -18992082.109 8369962.498 -14828085.863 10 0 59904 900.00000 0 -20646866.729 8625248.653 -12248653.191 10 0 59904 1800.00000 0 -21951188.802 8944383.564 -9431315.612 10 0 59904 2700.00000 0 -22880416.920 9274875.265 -6430822.664 10 0 59904 3600.00000 0 -23422676.650 9561663.020 -3305463.499 10 0 59904 4500.00000 0 -23579197.518 9749650.313 -115932.865 10 0 59904 5400.00000 0 -23364127.420 9786248.134 3075848.556 10 0 59904 6300.00000 0 -22803823.287 9623820.632 6207936.337 10 0 59904 7200.00000 0 -21935648.810 9221929.464 9219563.322 10 0 59904 8100.00000 0 -20806330.596 8549281.718 12052316.128 10 0 59904 9000.00000 0 -19469942.441 7585298.884 14651264.379 10 0 59904 9900.00000 0 -17985602.809 6321240.361 16966020.953 10 0 59904 10800.00000 0 -16414982.237 4760833.660 18951713.196 10 0 59904 11700.00000 0 -14819725.001 2920384.083 20569846.930 10 0 59904 12600.00000 0 -13258892.678 828358.351 21789047.162 10 0 59904 13500.00000 0 -11786535.917 -1475541.621 22585661.929 10 0 59904 14400.00000 0 -10449495.234 -3941777.545 22944218.250 10 0 59904 15300.00000 0 -9285521.947 -6512789.369 22857721.763 10 0 59904 16200.00000 0 -8321796.987 -9125151.768 22327794.515 10 0 59904 17100.00000 0 -7573908.780 -11711984.483 21364648.122 10 0 59904 18000.00000 0 -7045332.470 -14205517.686 19986892.423 10 0 59904 18900.00000 0 -6727431.877 -16539707.080 18221182.702 10 0 59904 19800.00000 0 -6599983.924 -18652790.962 16101711.397 10 0 59904 20700.00000 0 -6632203.488 -20489683.473 13669553.260 10 0 59904 21600.00000 0 -6784225.584 -22004104.703 10971875.676 10 0 59904 22500.00000 0 -7008982.468 -23160358.804 8061028.615 10 0 59904 23400.00000 0 -7254396.436 -23934685.833 4993531.430 10 0 59904 24300.00000 0 -7465795.470 -24316130.294 1828975.756 10 0 59904 25200.00000 0 -7588449.086 -24306889.624 -1371134.174 10 0 59904 26100.00000 0 -7570116.389 -23922127.895 -4544580.799 10 0 59904 27000.00000 0 -7363497.539 -23189262.390 -7629648.267 10 0 59904 27900.00000 0 -6928483.673 -22146753.140 -10566328.858 10 0 59904 28800.00000 0 -6234108.828 -20842446.543 -13297496.458 10 0 59904 29700.00000 0 -5260119.917 -19331543.166 -15770023.554 10 0 59904 30600.00000 0 -3998097.052 -17674275.660 -17935819.387 10 0 59904 31500.00000 0 -2452075.641 -15933394.996 -19752768.613 10 0 59904 32400.00000 0 -638642.753 -14171571.029 -21185552.014 10 0 59904 33300.00000 0 1413497.472 -12448816.825 -22206333.376 10 0 59904 34200.00000 0 3664472.171 -10820044.935 -22795299.321 10 0 59904 35100.00000 0 6064663.087 -9332857.869 -22941041.963 10 0 59904 36000.00000 0 8556546.224 -8025664.903 -22640777.348 10 0 59904 36900.00000 0 11076871.638 -6926203.454 -21900395.777 10 0 59904 37800.00000 0 13559093.079 -6050526.038 -20734343.373 10 0 59904 38700.00000 0 15935946.737 -5402494.103 -19165337.391 10 0 59904 39600.00000 0 18142071.991 -4973798.809 -17223920.959 10 0 59904 40500.00000 0 20116565.391 -4744506.528 -14947865.957 10 0 59904 41400.00000 0 21805361.781 -4684104.842 -12381435.635 10 0 59904 42300.00000 0 23163343.580 -4753003.789 -9574521.420 10 0 59904 43200.00000 0 24156090.668 -4904427.919 -6581670.720 10 0 59904 44100.00000 0 24761198.311 -5086618.310 -3461024.778 10 0 59904 45000.00000 0 24969108.590 -5245250.699 -273187.507 10 0 59904 45900.00000 0 24783421.349 -5325966.791 2919952.471 10 0 59904 46800.00000 0 24220672.388 -5276911.168 6056423.443 10 0 59904 47700.00000 0 23309589.046 -5051166.089 9075372.251 10 0 59904 48600.00000 0 22089855.146 -4608980.957 11918242.549 10 0 59904 49500.00000 0 20610437.700 -3919701.911 14529906.914 10 0 59904 50400.00000 0 18927545.927 -2963319.883 16859731.009 10 0 59904 51300.00000 0 17102308.272 -1731571.396 18862549.657 10 0 59904 52200.00000 0 15198264.488 -228545.234 20499536.558 10 0 59904 53100.00000 0 13278777.327 1529231.294 21738951.419 10 0 59904 54000.00000 0 11404471.313 3513231.167 22556750.840 10 0 59904 54900.00000 0 9630804.707 5683874.504 22937051.751 10 0 59904 55800.00000 0 8005875.072 7991945.338 22872438.893 10 0 59904 56700.00000 0 6568549.009 10380420.857 22364110.632 10 0 59904 57600.00000 0 5346993.163 12786638.557 21421860.216 10 0 59904 58500.00000 0 4357667.041 15144712.580 20063892.454 10 0 59904 59400.00000 0 3604819.070 17388100.027 18316478.722 10 0 59904 60300.00000 0 3080506.432 19452211.544 16213456.121 10 0 59904 61200.00000 0 2765137.540 21276958.069 13795579.536 10 0 59904 62100.00000 0 2628514.128 22809127.986 11109738.226 10 0 59904 63000.00000 0 2631328.845 24004495.520 8208051.279 10 0 59904 63900.00000 0 2727055.122 24829571.955 5146858.960 10 0 59904 64800.00000 0 2864149.136 25262925.906 1985629.187 10 0 59904 65700.00000 0 2988470.364 25296016.874 -1214199.594 10 0 59904 66600.00000 0 3045817.629 24933506.321 -4390416.334 10 0 59904 67500.00000 0 2984472.365 24193032.959 -7481252.221 10 0 59904 68400.00000 0 2757640.381 23104461.471 -10426588.071 10 0 59904 69300.00000 0 2325687.531 21708636.028 -13169129.947 10 0 59904 70200.00000 0 1658073.416 20055691.138 -15655529.428 10 0 59904 71100.00000 0 734900.007 18202991.034 -17837426.093 10 0 59904 72000.00000 0 -451991.448 16212784.495 -19672391.465 10 0 59904 72900.00000 0 -1898422.751 14149673.804 -21124755.880 10 0 59904 73800.00000 0 -3587806.654 12078004.185 -22166302.218 10 0 59904 74700.00000 0 -5491604.352 10059283.170 -22776813.170 10 0 59904 75600.00000 0 -7570294.364 8149737.759 -22944461.775 10 0 59904 76500.00000 0 -9774813.068 6398111.085 -22666038.004 10 0 59904 77400.00000 0 -12048407.288 4843790.130 -21947007.371 10 0 59904 78300.00000 0 -14328822.170 3515341.787 -20801400.754 10 0 59904 79200.00000 0 -16550733.509 2429517.315 -19251537.800 10 0 59904 80100.00000 0 -18648323.353 1590765.599 -17327589.420 10 0 59904 81000.00000 0 -20557891.733 991274.080 -15066987.948 10 0 59904 81900.00000 0 -22220395.773 611534.144 -12513696.414 10 0 59904 82800.00000 0 -23583810.306 421405.738 -9717351.212 10 0 59904 83700.00000 0 -24605211.598 381634.966 -6732294.893 10 0 59904 84600.00000 0 -25252497.342 445759.382 -3616517.981 10 0 59904 85500.00000 0 -25505671.216 562319.496 -430530.689 10 0 59905 0.00000 0 -25357638.738 677282.061 2763813.002 10 0 59905 900.00000 0 -24814481.392 736572.019 5904517.544 10 0 59905 1800.00000 0 -23895198.388 688605.345 8930646.314 10 0 59905 2700.00000 0 -22630927.163 486715.480 11783502.759 10 0 59905 3600.00000 0 -21063675.833 91370.349 14407765.026 10 0 59905 4500.00000 0 -19244621.019 -527913.822 16752553.963 10 0 59905 5400.00000 0 -17232042.365 -1391042.901 18772413.978 10 0 59905 6300.00000 0 -15088979.934 -2506264.297 20428188.377 10 0 59905 7200.00000 0 -12880711.948 -3869581.435 21687772.867 10 0 59905 8100.00000 0 -10672157.446 -5464688.649 22526733.427 10 0 59905 9000.00000 0 -8525311.232 -7263430.326 22928777.229 10 0 59905 9900.00000 0 -6496817.031 -9226766.335 22886067.955 10 0 59905 10800.00000 0 -4635778.814 -11306204.886 22399379.685 10 0 59905 11700.00000 0 -2981900.363 -13445644.639 21478086.281 10 0 59905 12600.00000 0 -1564029.669 -15583550.689 20139986.133 10 0 59905 13500.00000 0 -399167.963 -17655375.151 18410965.005 10 0 59905 14400.00000 0 508015.967 -19596122.589 16324502.655 10 0 59905 15300.00000 0 1165146.380 -21342954.067 13921031.867 10 0 59905 16200.00000 0 1591578.245 -22837721.516 11247161.337 10 0 59905 17100.00000 0 1817336.000 -24029326.703 8354776.664 10 0 59905 18000.00000 0 1881598.389 -24875805.764 5300036.344 10 0 59905 18900.00000 0 1830793.685 -25346051.454 2142281.902 10 0 59905 19800.00000 0 1716386.259 -25421100.143 -1057116.706 10 0 59905 20700.00000 0 1592448.734 -25094928.684 -4235957.610 10 0 59905 21600.00000 0 1513123.342 -24374727.081 -7332421.606 10 0 59905 22500.00000 0 1530080.950 -23280634.773 -10286280.545 10 0 59905 23400.00000 0 1690086.437 -21844951.208 -13040075.082 10 0 59905 24300.00000 0 2032774.656 -20110853.668 -15540238.161 10 0 59905 25200.00000 0 2588732.310 -18130676.022 -17738141.803 10 0 59905 26100.00000 0 3377967.942 -15963820.819 -19591046.269 10 0 59905 27000.00000 0 4408835.769 -13674392.341 -21062933.011 10 0 59905 27900.00000 0 5677459.775 -11328649.855 -22125205.220 10 0 59905 28800.00000 0 7167683.220 -8992387.653 -22757242.490 10 0 59905 29700.00000 0 8851546.559 -6728351.234 -22946799.220 10 0 59905 30600.00000 0 10690274.495 -4593797.110 -22690239.349 10 0 59905 31500.00000 0 12635731.421 -2638297.576 -21992603.277 10 0 59905 32400.00000 0 14632284.890 -901881.133 -20867505.970 10 0 59905 33300.00000 0 16618999.647 586414.904 -19336868.458 10 0 59905 34200.00000 0 18532070.748 1809520.433 -17430488.092 10 0 59905 35100.00000 0 20307394.334 2762797.911 -15185455.968 10 0 59905 36000.00000 0 21883168.709 3453979.154 -12645432.826 10 0 59905 36900.00000 0 23202416.994 3902577.825 -9859797.598 10 0 59905 37800.00000 0 24215325.845 4138803.947 -6882685.183 10 0 59905 38700.00000 0 24881302.394 4202027.647 -3771932.292 10 0 59905 39600.00000 0 25170663.317 4138858.229 -587952.142 10 0 59905 40500.00000 0 25065885.404 4000920.856 2607439.918 10 0 59905 41400.00000 0 24562365.424 3842425.719 5752226.744 10 0 59905 42300.00000 0 23668657.716 3717633.130 8785392.095 10 0 59905 43200.00000 0 22406179.809 3678322.262 11648102.246 10 0 59905 44100.00000 0 20808398.656 3771370.807 14284843.647 10 0 59905 45000.00000 0 18919531.688 4036547.994 16644494.721 10 0 59905 45900.00000 0 16792817.002 4504614.249 18681311.478 10 0 59905 46800.00000 0 14488424.668 5195807.783 20355808.471 10 0 59905 47700.00000 0 12071095.911 6118782.110 21635518.664 10 0 59905 48600.00000 0 9607607.836 7270039.628 22495618.277 10 0 59905 49500.00000 0 7164168.310 8633885.814 22919405.182 10 0 59905 50400.00000 0 4803848.433 10182906.898 22898622.039 10 0 59905 51300.00000 0 2584158.145 11878952.260 22433618.222 10 0 59905 52200.00000 0 554864.645 13674581.874 21533347.339 10 0 59905 53100.00000 0 -1243856.681 15514919.694 20215200.027 10 0 59905 54000.00000 0 -2782862.865 17339836.992 18504674.679 10 0 59905 54900.00000 0 -4045016.326 19086375.645 16434891.582 10 0 59905 55800.00000 0 -5025650.194 20691310.949 14045958.952 10 0 59905 56700.00000 0 -5732507.199 22093747.435 11384202.226 10 0 59905 57600.00000 0 -6185155.171 23237639.200 8501270.663 10 0 59905 58500.00000 0 -6413904.104 24074128.877 5453138.016 10 0 59905 59400.00000 0 -6458270.921 24563606.718 2299016.387 10 0 59905 60300.00000 0 -6365057.182 24677402.401 -899795.775 10 0 59905 61200.00000 0 -6186121.589 24399037.541 -4081108.703 10 0 59905 62100.00000 0 -5975942.321 23724985.345 -7183055.647 10 0 59905 63000.00000 0 -5789073.276 22664904.496 -10145302.145 10 0 59905 63900.00000 0 -5677602.895 21241336.716 -12910225.836 10 0 59905 64800.00000 0 -5688724.199 19488880.007 -15424043.167 10 0 59905 65700.00000 0 -5862519.982 17452871.936 -17637860.441 10 0 59905 66600.00000 0 -6230057.807 15187637.959 -19508628.214 10 0 59905 67500.00000 0 -6811876.254 12754378.084 -20999980.349 10 0 59905 68400.00000 0 -7616927.191 10218780.206 -22082941.365 10 0 59905 69300.00000 0 -8642019.363 7648459.850 -22736488.517 10 0 59905 70200.00000 0 -9871787.413 5110333.011 -22947958.023 10 0 59905 71100.00000 0 -11279188.241 2668031.295 -22713287.937 10 0 59905 72000.00000 0 -12826504.318 379466.668 -22037093.309 10 0 59905 72900.00000 0 -14466812.317 -1705353.512 -20932572.544 10 0 59905 73800.00000 0 -16145855.855 -3546171.131 -19421246.972 10 0 59905 74700.00000 0 -17804244.076 -5113905.821 -17532538.866 10 0 59905 75600.00000 0 -19379884.177 -6391609.165 -15303196.158 10 0 59905 76500.00000 0 -20810546.030 -7374906.267 -12776575.037 10 0 59905 77400.00000 0 -22036451.391 -8071907.815 -10001794.424 10 0 59905 78300.00000 0 -23002779.116 -8502598.021 -7032778.819 10 0 59905 79200.00000 0 -23661981.224 -8697725.822 -3927208.233 10 0 59905 80100.00000 0 -23975812.533 -8697247.490 -745395.885 10 0 59905 81000.00000 0 -23916988.647 -8548387.706 2450884.256 10 0 59905 81900.00000 0 -23470402.695 -8303402.057 5599597.096 10 0 59905 82800.00000 0 -22633849.776 -8017136.339 8639649.535 10 0 59905 83700.00000 0 -21418228.781 -7744486.443 11512073.646 10 0 59905 84600.00000 0 -19847213.110 -7537866.529 14161167.020 10 0 59905 85500.00000 0 -17956404.072 -7444792.609 16535568.259 10 0 59906 0.00000 0 -15792002.336 -7505683.555 18589247.107 10 0 59906 900.00000 0 -13409051.356 -7751972.306 20282391.649 10 0 59906 1800.00000 0 -10869328.456 -8204606.726 21582173.364 10 0 59906 2700.00000 0 -8238966.750 -8873003.430 22463379.693 10 0 59906 3600.00000 0 -5585908.683 -9754498.856 22908899.682 10 0 59906 4500.00000 0 -2977294.865 -10834321.181 22910054.966 10 0 59906 5400.00000 0 -476895.624 -12086085.151 22466769.763 10 0 59906 6300.00000 0 1857309.323 -13472790.154 21587576.558 10 0 59906 7200.00000 0 3975303.590 -14948280.965 20289457.016 10 0 59906 8100.00000 0 5836870.033 -16459111.265 18597520.606 10 0 59906 9000.00000 0 7413014.376 -17946733.127 16544526.275 10 0 59906 9900.00000 0 8686917.880 -19349921.719 14170255.538 10 0 59906 10800.00000 0 9654379.968 -20607334.302 11520748.177 10 0 59906 11700.00000 0 10323732.767 -21660096.497 8647414.449 10 0 59906 12600.00000 0 10715231.697 -22454307.253 5606040.546 10 0 59906 13500.00000 0 10859948.115 -22943356.778 2455706.202 10 0 59906 14400.00000 0 10798211.149 -23089959.074 -742364.647 10 0 59906 15300.00000 0 10577665.164 -22867812.712 -3925997.346 10 0 59906 16200.00000 0 10251025.592 -22262818.718 -7033280.489 10 0 59906 17100.00000 0 9873628.902 -21273803.202 -10003776.058 10 0 59906 18000.00000 0 9500881.277 -19912713.249 -12779701.283 10 0 59906 18900.00000 0 9185714.899 -18204276.864 -15307058.507 10 0 59906 19800.00000 0 8976160.452 -16185140.500 -17536690.468 10 0 59906 20700.00000 0 8913139.379 -13902519.826 -19425239.893 10 0 59906 21600.00000 0 9028569.976 -11412419.845 -20935994.581 10 0 59906 22500.00000 0 9343867.982 -8777498.524 -22039601.549 10 0 59906 23400.00000 0 9868905.402 -6064662.989 -22714636.476 10 0 59906 24300.00000 0 10601471.912 -3342498.299 -22948017.763 10 0 59906 25200.00000 0 11527261.805 -678635.591 -22735257.532 10 0 59906 26100.00000 0 12620387.297 1862831.209 -22080545.074 10 0 59906 27000.00000 0 13844396.823 4223773.271 -20996661.472 10 0 59906 27900.00000 0 15153755.688 6354199.111 -19504727.266 10 0 59906 28800.00000 0 16495726.998 8214081.751 -17633788.250 10 0 59906 29700.00000 0 17812573.922 9774765.855 -15420247.484 10 0 59906 30600.00000 0 19043990.825 11019897.579 -12907154.570 10 0 59906 31500.00000 0 20129661.038 11945839.711 -10143366.073 10 0 59906 32400.00000 0 21011833.716 12561556.413 -7182593.458 10 0 59906 33300.00000 0 21637811.293 12887974.024 -4082357.141 10 0 59906 34200.00000 0 21962242.789 12956846.368 -902867.288 10 0 59906 35100.00000 0 21949126.378 12809173.811 2294146.681 10 0 59906 36000.00000 0 21573436.858 12493244.005 5446634.854 10 0 59906 36900.00000 0 20822309.470 12062377.988 8493430.297 10 0 59906 37800.00000 0 19695730.218 11572477.571 11375433.712 10 0 59906 38700.00000 0 18206703.487 11079478.053 14036756.409 10 0 59906 39600.00000 0 16380889.725 10636813.996 16425799.474 10 0 59906 40500.00000 0 14255727.966 10293004.973 18496248.726 10 0 59906 41400.00000 0 11879079.287 10089462.954 20207966.751 10 0 59906 42300.00000 0 9307447.156 10058613.421 21527765.354 10 0 59906 43200.00000 0 6603847.881 10222409.139 22430044.292 10 0 59906 44100.00000 0 3835418.630 10591298.978 22897284.547 10 0 59906 45000.00000 0 1070861.295 11163695.261 22920387.110 10 0 59906 45900.00000 0 -1622172.998 11925962.390 22498851.019 10 0 59906 46800.00000 0 -4179651.479 12852927.877 21640787.170 10 0 59906 47700.00000 0 -6543574.029 13908895.216 20362767.321 10 0 59906 48600.00000 0 -8664135.030 15049117.114 18689510.620 10 0 59906 49500.00000 0 -10501543.894 16221668.348 16653412.859 10 0 59906 50400.00000 0 -12027429.160 17369640.567 14293926.668 10 0 59906 51300.00000 0 -13225768.264 18433567.626 11656803.688 10 0 59906 52200.00000 0 -14093304.613 19353979.955 8793212.511 10 0 59906 53100.00000 0 -14639434.879 20073980.614 5758748.957 10 0 59906 54000.00000 0 -14885571.666 20541734.257 2612357.482 10 0 59906 54900.00000 0 -14864008.793 20712763.568 -584815.375 10 0 59906 55800.00000 0 -14616337.395 20551955.242 -3770612.925 10 0 59906 56700.00000 0 -14191480.414 20035189.875 -6883081.937 10 0 59906 57600.00000 0 -13643429.310 19150525.892 -9861683.563 10 0 59906 58500.00000 0 -13028779.370 17898886.224 -12648477.188 10 0 59906 59400.00000 0 -12404168.741 16294217.689 -15189253.427 10 0 59906 60300.00000 0 -11823730.339 14363115.277 -17434593.583 10 0 59906 61200.00000 0 -11336665.112 12143926.289 -19340834.418 10 0 59906 62100.00000 0 -10985039.831 9685371.150 -20870919.266 10 0 59906 63000.00000 0 -10801902.888 7044738.007 -21995118.947 10 0 59906 63900.00000 0 -10809797.902 4285726.210 -22691608.574 10 0 59906 64800.00000 0 -11019737.964 1476028.147 -22946889.432 10 0 59906 65700.00000 0 -11430683.771 -1315250.189 -22756048.077 10 0 59906 66600.00000 0 -12029547.555 -4020222.931 -22122848.037 10 0 59906 67500.00000 0 -12791722.539 -6574803.405 -21059652.663 10 0 59906 68400.00000 0 -13682115.483 -8921121.960 -19587180.888 10 0 59906 69300.00000 0 -14656638.749 -11009682.757 -17734100.781 10 0 59906 70200.00000 0 -15664098.932 -12801170.757 -15536468.891 10 0 59906 71100.00000 0 -16648402.432 -14267834.807 -13037026.255 10 0 59906 72000.00000 0 -17550984.925 -15394390.353 -10284364.813 10 0 59906 72900.00000 0 -18313362.254 -16178405.529 -7331980.499 10 0 59906 73800.00000 0 -18879695.056 -16630155.994 -4237231.479 10 0 59906 74700.00000 0 -19199258.845 -16771956.078 -1060222.079 10 0 59906 75600.00000 0 -19228715.258 -16636995.904 2137365.685 10 0 59906 76500.00000 0 -18934088.519 -16267734.724 5293470.017 10 0 59906 77400.00000 0 -18292363.686 -15713919.327 8346853.099 10 0 59906 78300.00000 0 -17292639.146 -15030311.947 11238287.213 10 0 59906 79200.00000 0 -15936784.628 -14274224.102 13911700.254 10 0 59906 80100.00000 0 -14239576.706 -13502960.640 16315258.519 10 0 59906 81000.00000 0 -12228305.642 -12771281.767 18402366.238 10 0 59906 81900.00000 0 -9941869.274 -12128989.753 20132563.072 10 0 59906 82800.00000 0 -7429391.028 -11618741.539 21472302.799 10 0 59906 83700.00000 0 -4748418.607 -11274178.801 22395598.931 10 0 59906 84600.00000 0 -1962777.072 -11118453.664 22884525.404 10 0 59906 85500.00000 0 859835.640 -11163211.714 22929563.161 99